www.pogodaiklimat.ru

Погода и климат >> Архив погоды >> Россия >> Свердловская область >> Кытлым


ПОГОДА в Кытлыме

  • Прогноз погоды в Кытлыме
  • Монитор погоды в Кытлыме

АРХИВ ПОГОДЫ в Кытлыме

Время (UTC), дата Ветер
(напр.,м/с)
 
Видим.   Явления Облачность Т
(С)
Тd
(С)
f
(%)
Тe
(С)
Тes
(С)
Комфортность P
(гПа)
Po
(гПа)
Тmin
(С)
Tmax
(С)
R
(мм)
R24
(мм)
S
(см)
09 13.04 СЗ 3
{11}
50 км 3/3 1000 м
[Cu med, cong]
+2.6 -13.2 30 -0 +5 1020.2 974.2
12 13.04 С 4
{10}
50 км ясно +2.6 -14.0 28 -1 +1 1021.1 975.0
15 13.04 С 3 50 км ясно -0.9 -15.4 32 -5 -5 1023.3 976.5 +3.2
18 13.04 СВ 3 50 км ясно -4.3 -15.0 43 -9 -9 1025.9 978.4
21 13.04 С 3 50 км ясно -6.0 -15.5 47 -11 -11 1027.6 979.8
00 14.04 штиль 0 50 км ясно -9.7 -14.0 71 -10 -10 1029.5 980.9
03 14.04 СВ 4 50 км ясно -6.5 -14.3 54 -13 -11 1030.0 982.0 -10.8 7
06 14.04 В 3 50 км ясно -3.6 -16.6 36 -8 -2 1029.9 982.4
09 14.04 СВ 2 50 км ясно -0.7 -18.5 25 -3 +6 1028.5 981.5
12 14.04 штиль 0 50 км ясно +1.5 -19.4 19 +2 +7 1027.0 980.5
15 14.04 ЮЗ 1 50 км ясно -0.7 -16.8 28 -2 -2 1025.9 979.1 +2.0
18 14.04 ЮЗ 2 50 км ясно -4.6 -15.2 43 -8 -8 1026.1 978.6
21 14.04 Ю 2 50 км ясно -7.1 -15.2 52 -11 -11 1025.0 977.1
00 15.04 Ю 2 50 км ясно -8.4 -15.2 58 -13 -13 1023.5 975.4
03 15.04 З 6-12
{12}
50 км 6/4 1000 м
[Sc Ci fib]
-1.5 -15.8 33 -7 -7 1019.7 973.0 -9.5 7
06 15.04 ЮЗ 6-11
{15}
50 км 10/10 1000 м
[Sc]
+0.1 -14.9 31 -5 -5 1016.6 970.3
09 15.04 ЮЗ 6-12
{14}
50 км 10/10 1000 м
[Sc]
+2.0 -11.3 37 -3 -3 1013.4 967.6
12 15.04 З 6-10
{15}
20 км 10/10 600 м
[Sc]
+1.9 -6.4 54 -4 -4 1012.4 966.6
15 15.04 ЮЗ 3
{12}
4000 м слаб. ливневой снег 10/10 300 м
[Cb cap]
-0.3 -2.8 83 -5 -5 1010.9 964.9 +3.2 0.3
18 15.04 ЮЗ 5 4000 м слаб. ливневой снег 9/9 300 м
[Cb cap]
-0.2 -2.8 83 -6 -6 1009.1 963.2
21 15.04 ЮЗ 3 4000 м слаб. ливневой снег 10/10 300 м
[Cb cap]
-0.1 -2.3 85 -5 -5 1006.8 961.0
00 16.04 СЗ 1 2000 м слаб. ливневой снег 10/10 300 м
[Cb cap]
-0.8 -2.2 90 -3 -3 1005.8 959.9
03 16.04 СЗ 4 10 км {ливн. осадки} 9/4 600 м
[Cb cap Ac trans Ci fib]
-2.7 -8.7 63 -8 -8 1006.7 960.4 -2.7 3 9
06 16.04 С 5 20 км {ливн. осадки} 8/8 600 м
[Sc]
-2.8 -12.8 46 -9 -8 1007.2 960.8 -3.3
09 16.04 С 6-10
{12}
50 км 8/8 1000 м
[Sc diur, vesp]
-2.7 -13.5 43 -9 -8 1008.7 962.3
12 16.04 С 8-15
{15}
50 км 6/6 1000 м
[Sc]
-4.5 -17.6 35 -12 -12 1011.9 965.0
15 16.04 С 6-10
{15}
50 км {метель} 6/4 1000 м
[Sc Ci fib]
-8.0 -18.1 44 -16 -16 1016.9 969.2 -2.1
18 16.04 С 5
{14}
50 км {метель} 8/8 1000 м
[Sc]
-9.6 -17.6 52 -17 -17 1020.3 972.2
21 16.04 С 6-10
{12}
4000 м слаб. снег 10/10 300 м
[Sc]
-10.5 -17.0 59 -19 -19 1022.3 973.9
00 17.04 С 6
{13}
10 км {снег} 10/10 300 м
[Sc]
-11.6 -17.9 60 -20 -20 1024.4 975.7
03 17.04 СВ 5
{10}
50 км ясно -10.3 -20.3 44 -18 -17 1026.4 977.9 -12.0 0.0 9
06 17.04 С 7-12
{13}
50 км 3/3 1000 м
[Cu med, cong]
-7.4 -18.4 41 -16 -14 1027.6 979.5
09 17.04 С 4
{12}
50 км ясно -4.5 -19.3 30 -10 -3 1028.2 980.6
12 17.04 С 3
{10}
50 км 10/0
[Ci sp]
-2.3 -20.0 24 -6 -4 1028.2 980.9
15 17.04 СЗ 4-10
{10}
50 км 8/0
[Ci fib]
-3.6 -19.0 29 -9 -9 1028.0 980.6 -2.1
18 17.04 ЮЗ 3
{10}
50 км ясно -6.0 -19.2 34 -11 -11 1028.4 980.6
21 17.04 З 2 50 км 5/0
[Ci fib]
-6.6 -19.2 36 -10 -10 1028.1 980.2
00 18.04 Ю 3
{10}
50 км 6/0
[Ci fib]
-6.8 -18.9 37 -12 -12 1026.9 979.0
03 18.04 З 3-10
{11}
50 км 3/0
[Ci fib]
-3.6 -20.5 26 -8 -6 1026.4 979.1 -7.8 9
06 18.04 З 5
{14}
50 км 3/3 1000 м
[Sc]
-0.7 -17.2 27 -6 -3 1026.2 979.4
09 18.04 З 4
{12}
50 км 3/3 1000 м
[Sc]
+1.7 -14.9 28 -2 +2 1026.0 979.5
12 18.04 З 5
{10}
50 км 3/0
[Ci fib]
+2.6 -14.3 28 -2 +1 1025.5 979.2
15 18.04 СЗ 1 50 км 3/0
[Ci fib]
+0.9 -15.1 29 0 0 1025.6 979.1 +2.7
18 18.04 В 2 50 км ясно -0.9 -14.3 35 -4 -4 1025.8 978.9
21 18.04 Ю 2 50 км ясно -1.7 -13.1 41 -5 -5 1024.9 978.0
00 19.04 Ю 3 50 км ясно -4.6 -11.4 59 -10 -10 1025.3 977.8
03 19.04 Ю 2 20 км 8/8 1000 м
[Sc]
-1.2 -7.5 62 -5 -4 1024.0 977.2 -5.5 9
06 19.04 ЮЗ 4 20 км 8/8 1000 м
[Sc]
+1.9 -6.6 53 -2 -1 1022.3 976.1
09 19.04 СЗ 5-13
{13}
50 км 9/9 1000 м
[Sc]
+2.5 -6.8 50 -2 -2 1021.5 975.4
12 19.04 С 4
{15}
50 км 6/6 1000 м
[Sc]
+2.3 -6.4 53 -2 -1 1020.9 974.8
15 19.04 СЗ 2
{11}
20 км 9/9 600 м
[Sc]
+1.9 -6.1 55 -1 -1 1020.8 974.6 +3.7
18 19.04 С 3 10 км 6/6 300 м
[Sc]
+0.6 -4.9 67 -4 -4 1020.7 974.4
21 19.04 СЗ 4
{10}
20 км 8/8 600 м
[Sc]
+0.5 -4.6 69 -5 -5 1020.2 973.9
00 20.04 Ю 1 50 км 10/10 1000 м
[Sc]
-0.7 -5.0 73 -3 -3 1020.8 974.2
03 20.04 СЗ 4 20 км 8/3 600 м
[Sc Ac trans Ci fib]
+1.5 -3.8 68 -3 -3 1020.7 974.5 -0.7 8

 

Местоположение метеостанции Кытлым (Свердловская область, Россия): широта 59.50 долгота 59.22 высота над уровнем моря 377 м.

В архиве по умолчанию представлена погода в Кытлыме за последнюю неделю. Архивные данные за месяц целиком и за предыдущие месяцы, начиная с января 2011 года, Вы можете получить, выбрав интересующий диапазон дат из раскрывающегося списка и нажав кнопку "Ввод!".


*Определитесь, кто Вы:
робот инопланетянин человек

Внимание! Время в таблицах - всемирное. Для получения местного времени необходимо прибавить поправку, которая равна 5 ч.

Смотрите также архив погоды в соседних городах и на ближайших метеорологических станциях:

Погода в Карпинске (Свердловская область, Россия) (52 км)
Погода в Серове (Свердловская область, Россия) (75 км)
Погода в Североуральске (Свердловская область, Россия) (92 км)
Погода в Качканаре (Свердловская область, Россия) (93 км)
Погода в Бисере (Пермский край, Россия) (111 км)
Погода в Верхотурье (Свердловская область, Россия) (113 км)
Погода в Губахе (Пермский край, Россия) (119 км)
Погода в Березниках (Пермский край, Россия) (130 км)
Погода в Кушве (Свердловская область, Россия) (135 км)
Погода в Ивделе (Свердловская область, Россия) (148 км)

Пояснения к столбцам:

Ветер - указаны скорость ветра в м/с - средняя за 10 мин, порывы в срок и между сроками (в фигурных скобках) и направление, откуда дует ветер: С - северный, СВ - северо-восточный, В - восточный, ЮВ - юго-восточный, Ю - южный, ЮЗ - юго-западный, З - западный, СЗ - северо-западный.
Видимость - горизонтальная дальность видимости в метрах или километрах. При видимости от 1 до 10 км при отсутствии осадков обычно наблюдается дымка, при ухудшении видимости до 1 км и менее - туман. В сухую погоду видимость может ухудшаться дымом, пылью или мглою.
Явления - указаны атмосферные явления, наблюдавшиеся в срок или в последний час перед сроком; фигурными скобками обозначены явления, наблюдавшиеся между сроками (за 1-3 часа до срока); квадратными скобками обозначены град или гололедные отложения с указанием их диаметра в мм.
Облачность - указаны через наклонную черту общая и нижняя облачность в баллах и высота нижней границы облаков в метрах; квадратными скобками обозначены формы облаков: Ci - перистые, Cs - перисто-слоистые, Cc - перисто-кучевые, Ac - высококучевые, As - высокослоистые, Sc - слоисто-кучевые, Ns - слоисто-дождевые, Cu - кучевые, Cb - кучево-дождевые. Подробнее классификацию облаков см. в Атласе облаков (PDF).
T - Температура воздуха - температура, измеренная на высоте 2 м над землей.
Td - Температура точки росы - температура, при понижении до которой содержащийся в воздухе водяной пар достигнет насыщения.
f - Относительная влажность воздуха - влажноcть воздуха, измеренная на высоте 2 м над землей.
Te - Эффективная температура - температура, которую ощущает одетый по сезону человек в тени. Характеристика душности погоды. При расчете учитывается влияние влажности воздуха и скорости ветра на теплоощущения человека.
Tes - Эффективная температура на солнце - температура, которую ощущает человек, с поправкой на солнечный нагрев. Характеристика знойности погоды. Зависит от высоты солнца над горизонтом, облачности и скорости ветра. Ночью, в пасмурную погоду, а также при ветре 12 м/с и более поправка равна нулю.
P - Атмосферное давление - приведенное к уровню моря атмосферное давление.
Po - Атмосферное давление - измеренное на уровне метеостанции атмосферное давление.
Tmin - Минимальная температура - минимум температуры воздуха на высоте 2 м над землей.
Tmax - Максимальная температура - максимум температуры воздуха на высоте 2 м над землей.
R - Количество осадков - Количество выпавших осадков за период времени, мм. При наведении курсора мыши на число - период времени, за который выпало указанное количество осадков.
R24 - Количество осадков - Количество выпавших осадков за 24 часа, мм.
S - Снежный покров - Высота снежного покрова, см. При наведении курсора мыши на число - состояние снежного покрова и степень покрытия местности в баллах.